Location: Kielce
(50.8833°N, 20.6167°E)
Time: 22:39:22
(UTC+02:00)

SR - Pass Details

Date: 24 April 2021
Orbit: 573 x 882 km, 66.7° (Epoch: 09 May)

Event Time Altitude Azimuth Distance (km) Brightness Sun altitude
Rises 17:17:03 0° 311° (NW) 3,453 ? 22.5°
Reaches altitude 10° 17:20:54 10° 286° (WNW) 2,467 ? 21.9°
Maximum altitude 17:23:33 14° 258° (WSW) 2,183 ? 21.5°
Drops below altitude 10° 17:26:08 10° 230° (SW) 2,380 ? 21.0°
Sets 17:29:43 0° 205° (SSW) 3,234 ? 20.5°
